SCP
0 0 0 0 0 0 0 0 0 0 0 0 0 0 0 0 0 0 0 0 0 0 0 0 0 0 0 0 0 0 0 0 0 0 0 0 0 0 0 0 0 0 0
0 0 0 0 0 0 0 0 0 0 0 0 0 0 0 0 0 0 0 0 0 0 0 0 0 0 0 0 0 0 0 0 0 0 0 0 0 0 0 0 0 0 0
0 0 0 0 0 0 0 0 0 0 0 0 0 0 0 0 0 0 0 0 0 0 0 0 0 0 0 0 0 0 0 0 0 0 0 0 0 0 0 0 0 0 0
0 0 0 0 0 0 0 0 0 0 0 0 0 0 0 0 0 0 0 0 0 0 0 0 0 0 0 0 0 0 0 0 0 0 0 0 0 0 0 0 0 0 0
0 0 0 0 0 0 0 0 0 0 0 0 0 0 0 0 0 0 0 0 0 0 0 0 0 0 0 0 0 0 0 0 0 0 0 0 0 0 0 0 0 0 0
0 0 0 0 0 0 0 0 0 0 0 0 0 0 0 0 0 0 0 0 0 0 0 0 0 0 0 0 0 0 0 0 0 0 0 0 0 0 0 0 0 0 0
0 0 0 0 0 0 0 0 0 0 0 0 0 0 0 0 0 0 0 0 0 0 0 0 0 0 0 0 0 0 0 0 0 0 0 0 0 0 0 0 0 0 0
0 0 0 0 0 0 0 0 0 0 0 0 0 0 0 0 0 0 0 0 0 0 0 0 0 0 0 0 0 0 0 0 0 0 0 0 0 0 0 0 0 0 0
0 0 0 0 0 0 0 0 0 0 0 0 0 0 0 0 0 0 0 0 0 0 0 0 0 0 0 0 0 0 0 0 0 0 0 0 0 0 0 0 0 0 0
0 0 0 0 0 0 0 0 0 0 0 0 0 0 0 0 0 0 0 0 0 0 0 0 0 0 0 0 0 0 0 0 0 0 0 0 0 0 0 0 0 0 0
0 0 0 0 0 0 0 0 0 0 0 0 0 0 0 0 0 0 0 0 0 0 0 0 0 0 0 0 0 0 0 0 0 0 0 0 0 0 0 0 0 0 0
0 0 0 0 0 0 0 0 0 0 0 0 0 0 0 0 0 0 0 0 0 0 0 0 0 0 0 0 0 0 0 0 0 0 0 0 0 0 0 0 0 0 0
0 0 0 0 0 0 0 0 0 0 0 0 0 0 0 0 0 0 0 0 0 0 0 0 0 0 0 0 0 0 0 0 0 0 0 0 0 0 0 0 0 0 0
0 0 0 0 0 0 0 0 0 0 0 0 0 0 0 0 0 0 0 0 0 0 0 0 0 0 0 0 0 0 0 0 0 0 0 0 0 0 0 0 0 0 0
0 0 0 0 0 0 0 0 0 0 0 0 0 0 0 0 0 0 0 0 0 0 0 0 0 0 0 0 0 0 0 0 0 0 0 0 0 0 0 0 0 0 0
0 0 0 0 0 0 0 0 0 0 0 0 0 0 0 0 0 0 0 0 0 0 0 0 0 0 0 0 0 0 0 0 0 0 0 0 0 0 0 0 0 0 0
0 0 0 0 0 0 0 0 0 0 0 0 0 0 0 0 0 0 0 0 0 0 0 0 0 0 0 0 0 0 0 0 0 0 0 0 0 0 0 0 0 0 0
0 0 0 0 0 0 0 0 0 0 0 0 0 0 0 0 0 0 0 0 0 0 0 0 0 0 0 0 0 0 0 0 0 0 0 0 0 0 0 0 0 0 0
0 0 0 0 0 0 0 0 0 0 0 0 0 0 0 0 0 0 0 0 0 0 0 0 0 0 0 0 0 0 0 0 0 0 0 0 0 0 0 0 0 0 0
0 0 0 0 0 0 0 0 0 0 0 0 0 0 0 0 0 0 0 0 0 0 0 0 0 0 0 0 0 0 0 0 0 0 0 0 0 0 0 0 0 0 0
0 0 0 0 0 0 0 0 0 0 0 0 0 0 0 0 0 0 0 0 0 0 0 0 0 0 0 0 0 0 0 0 0 0 0 0 0 0 0 0 0 0 0
0 0 0 0 0 0 0 0 0 0 0 0 0 0 0 0 0 0 0 0 0 0 0 0 0 0 0 0 0 0 0 0 0 0 0 0 0 0 0 0 0 0 0
0 0 0 0 0 0 0 0 0 0 0 0 0 0 0 0 0 0 0 0 0 0 0 0 0 0 0 0 0 0 0 0 0 0 0 0 0 0 0 0 0 0 0
0 0 0 0 0 0 0 0 0 0 0 0 0 0 0 0 0 0 0 0 0 0 0 0 0 0 0 0 0 0 0 0 0 0 0 0 0 0 0 0 0 0 0
0 0 0 0 0 0 0 0 0 0 0 0 0 0 0 0 0 0 0 0 0 0 0 0 0 0 0 0 0 0 0 0 0 0 0 0 0 0 0 0 0 0 0
0 0 0 0 0 0 0 0 0 0 0 0 0 0 0 0 0 0 0 0 0 0 0 0 0 0 0 0 0 0 0 0 0 0 0 0 0 0 0 0 0 0 0
Wind_Speed
3 3 3 3 3 2 3 2 2 2 2 2 2 2 3 3 3 3 3 5 5 5 6 6 5 6 5 5 5 5 5 5 6 6 5 5 5 6 6 6 6 6 7
3 3 3 3 3 2 2 2 2 2 1 1 2 2 2 2 3 4 3 4 5 5 5 5 5 5 5 5 5 5 6 5 5 5 5 5 5 5 5 5 5 5 6
3 3 3 3 3 2 3 2 2 2 2 2 2 2 2 3 3 3 4 3 3 4 4 5 5 4 4 4 4 5 5 5 4 4 4 4 4 4 4 4 5 5 5
3 3 3 3 3 3 2 2 2 2 2 2 2 2 2 2 3 3 3 3 2 2 3 4 5 4 4 4 5 5 5 4 4 4 3 3 3 3 3 3 3 4 4
4 3 3 3 4 3 2 2 2 2 2 2 2 2 2 2 2 3 3 3 3 3 2 4 5 4 4 3 3 4 4 4 4 3 3 2 1 1 1 2 2 2 3
4 4 3 3 4 3 2 2 3 3 3 3 3 2 2 1 1 2 2 2 3 3 3 3 2 2 3 3 2 2 2 2 2 2 1 1 0 0 1 1 1 1 2
4 4 3 4 3 3 3 3 3 3 3 3 3 2 2 2 2 1 1 2 2 2 2 2 2 2 1 2 1 1 1 0 0 0 0 1 1 1 1 1 0 1 2
4 4 5 4 4 3 4 4 4 3 2 3 3 2 1 1 1 0 1 1 1 1 1 1 2 2 2 1 1 1 0 1 1 1 1 2 2 2 2 3 2 2 2
4 4 5 4 4 4 4 4 5 4 4 2 2 3 3 3 1 1 1 1 1 1 1 1 1 2 2 2 1 1 1 1 1 2 2 3 3 3 3 4 3 3 3
5 5 5 5 5 4 4 5 4 4 5 4 2 1 1 3 3 1 1 1 2 1 1 1 1 1 2 2 2 2 1 1 2 3 3 3 4 4 4 5 4 4 4
4 5 5 5 5 4 5 5 5 4 4 4 3 2 1 1 2 2 2 1 1 2 2 2 2 1 2 2 2 2 3 3 4 4 5 5 5 5 5 5 5 5 5
3 4 5 5 5 4 5 5 5 5 4 4 3 2 2 2 2 2 2 2 2 2 2 2 2 2 2 2 3 4 4 4 5 5 6 5 5 5 6 6 6 6 6
3 5 5 5 5 5 5 5 5 5 5 5 5 3 3 2 2 2 2 2 1 1 2 2 3 2 2 2 2 4 5 5 5 6 7 6 5 5 6 7 8 7 6
4 5 5 5 5 5 5 5 4 4 4 5 5 4 3 2 2 2 3 2 1 1 1 3 2 2 2 2 3 5 4 6 6 6 7 6 5 5 6 7 7 6 6
3 5 5 5 5 6 6 5 4 5 4 4 4 4 3 2 2 2 2 3 3 2 3 3 2 2 2 2 4 3 3 6 6 6 6 5 5 5 6 7 6 6 6
4 5 6 6 5 6 6 6 4 5 5 4 4 4 4 3 2 2 2 2 2 3 3 2 2 2 2 2 4 3 4 6 7 7 6 5 5 5 6 6 6 6 7
5 5 6 6 6 6 6 6 6 6 6 5 4 5 4 4 3 3 2 2 2 2 2 1 1 1 1 2 2 2 3 3 4 7 7 6 6 6 7 7 7 7 8
4 5 5 5 6 6 6 7 7 7 6 6 6 5 5 4 4 3 3 3 3 2 2 2 1 1 2 3 3 3 3 3 3 6 7 7 7 7 7 7 7 8 8
3 4 4 5 5 5 6 6 6 6 6 6 6 6 6 6 5 4 4 4 3 2 2 2 2 1 1 1 1 2 2 2 2 4 6 7 7 7 7 8 8 8 8
4 4 4 5 5 5 5 5 5 5 5 5 5 6 6 7 6 6 5 4 3 3 2 2 2 1 1 1 1 1 2 2 2 2 4 4 6 7 8 9 8 8 8
4 4 4 4 4 4 4 5 5 5 5 4 5 5 5 7 8 7 5 5 5 4 3 3 2 1 1 1 2 2 2 2 3 2 2 3 3 3 4 7 7 8 8
3 3 4 4 4 4 5 6 5 5 5 5 5 5 5 6 6 7 7 7 7 6 5 4 3 4 4 3 2 2 2 1 3 2 2 3 2 3 3 3 7 9 9
3 3 3 4 4 3 5 5 6 4 4 5 5 4 4 4 6 5 5 6 6 7 8 6 6 5 5 5 4 3 3 3 4 2 1 3 2 4 3 5 9 9 9
2 2 2 3 3 3 5 5 5 4 4 5 5 5 5 5 5 5 4 4 5 5 6 5 5 5 4 4 5 4 4 2 2 2 2 3 3 3 3 3 8 9 8
1 1 1 2 3 3 5 5 4 3 3 4 4 5 5 5 7 7 5 5 4 3 3 5 5 4 4 4 3 2 1 1 2 2 1 2 2 2 3 3 5 7 7
2 2 1 2 2 3 5 5 4 3 3 2 2 3 5 5 7 7 6 5 5 4 2 2 2 2 2 3 4 4 4 3 2 2 2 1 1 1 3 2 2 2 4
Wind_Direction
153 150 148 146 153 151 149 155 159 152 151 153 149 130 115 109 107 97 91 95 101 113 121 119 119 118 113 108 100 92 94 96 100 95 93 81 85 85 83 77 73 68 63
149 147 146 146 146 146 147 152 150 131 123 105 98 93 98 112 115 115 109 91 89 98 110 118 119 117 116 110 100 94 90 98 98 97 92 89 82 90 87 78 69 66 61
147 145 144 138 140 140 134 125 123 110 102 89 83 76 70 83 101 109 111 108 97 90 101 113 116 113 113 116 108 101 93 89 96 99 95 94 83 83 86 78 71 64 56
144 135 142 146 144 137 134 128 127 111 106 95 78 67 66 72 90 95 97 106 107 97 92 108 107 108 104 109 103 97 89 82 86 92 94 90 91 74 87 84 73 65 54
150 138 143 145 138 136 137 140 125 127 121 107 92 72 61 59 76 89 95 101 106 109 102 99 101 102 105 102 97 98 97 82 88 86 82 79 79 65 67 94 82 65 48
153 141 140 138 135 138 142 141 141 130 128 123 103 71 56 58 62 82 105 103 102 108 115 114 107 100 105 106 104 93 96 78 88 96 79 57 10 351 15 90 83 38 22
158 151 149 148 145 151 159 150 135 132 127 120 100 76 26 32 68 78 74 89 85 86 101 114 120 115 108 113 121 124 120 89 39 63 359 325 298 285 286 267 233 353 346
166 162 157 160 158 157 162 158 142 141 151 147 136 131 141 342 333 54 84 104 106 92 96 110 117 116 122 126 121 102 34 296 307 279 263 292 294 304 290 284 257 279 305
170 167 166 164 167 164 169 170 162 160 166 182 167 152 156 186 204 248 213 162 159 140 171 155 140 132 129 130 138 116 72 309 294 290 277 271 276 285 284 293 268 271 283
174 172 171 170 171 169 168 175 171 168 166 179 205 221 160 148 155 178 247 217 199 190 196 203 185 169 147 142 146 150 184 241 266 283 288 284 280 283 279 297 280 279 282
174 174 174 174 174 175 176 175 172 174 176 178 180 183 192 106 131 145 197 220 242 228 205 196 195 197 184 167 171 185 199 229 252 266 274 276 281 283 293 292 300 287 284
173 177 178 178 176 176 182 183 181 182 183 180 184 179 172 170 184 162 173 185 215 238 227 208 198 201 202 194 202 194 206 228 245 262 271 277 285 286 294 291 293 293 296
179 184 181 180 179 179 182 181 181 186 186 186 190 195 194 197 172 162 152 171 190 231 222 228 205 199 206 192 206 200 213 225 239 257 265 272 285 287 289 294 292 289 290
181 175 177 181 181 180 182 181 182 187 187 190 196 193 194 198 182 178 168 160 173 245 236 238 225 204 203 201 220 207 216 226 237 253 264 273 282 283 286 290 289 287 290
177 172 175 182 183 180 182 183 187 187 183 192 195 194 194 196 189 189 175 170 169 200 237 232 228 222 215 211 220 210 210 230 240 248 260 271 276 273 281 292 283 286 288
177 175 179 184 183 181 182 182 183 187 186 190 189 190 195 192 187 184 184 195 190 186 221 224 224 226 216 233 233 222 220 233 236 243 249 256 264 268 276 279 278 281 283
177 181 184 183 184 184 185 185 186 187 190 190 191 190 195 190 186 187 182 187 203 181 206 255 249 213 204 226 244 234 226 219 230 242 247 251 258 265 273 277 275 280 281
180 180 181 186 188 189 189 190 191 191 192 195 194 188 194 191 192 189 186 195 205 203 188 221 249 236 237 230 217 222 233 230 230 243 248 252 256 263 270 277 274 277 279
177 178 184 189 190 191 193 193 191 191 195 197 195 193 194 190 197 195 191 197 201 205 196 192 224 247 256 239 209 230 242 245 245 248 249 251 257 263 269 277 280 280 279
180 185 190 191 189 189 191 190 190 190 194 198 199 197 197 197 198 194 197 197 191 197 197 187 207 228 253 258 193 220 255 252 258 260 252 256 260 263 270 277 280 279 279
187 185 185 187 185 187 192 186 187 188 190 196 201 201 202 202 205 201 199 194 188 196 198 199 205 214 227 212 219 222 241 253 261 237 243 251 248 248 256 267 270 273 277
183 177 182 183 184 194 191 193 194 191 191 196 203 200 198 199 204 206 207 204 199 200 201 202 210 216 223 222 214 218 224 233 260 235 223 256 232 244 248 246 268 274 275
181 185 185 180 181 182 184 194 202 197 195 200 200 193 203 206 200 197 206 209 212 218 213 208 210 217 216 212 204 216 221 232 241 233 220 259 239 245 251 265 273 271 274
174 192 191 184 178 184 191 201 206 201 203 208 202 197 198 198 200 195 197 205 216 222 222 218 215 218 218 207 204 213 221 242 281 261 201 246 252 250 270 266 271 269 277
167 180 171 179 188 194 193 198 201 196 204 215 209 200 195 197 202 195 191 202 217 228 233 222 220 223 224 218 205 171 184 206 262 264 231 226 258 281 279 271 270 274 280
182 175 175 187 196 198 197 195 197 196 202 212 212 203 202 203 203 197 197 199 211 217 200 207 217 224 220 214 208 195 191 204 233 250 225 202 255 305 293 277 270 276 278